TimeMST,TemperatureF,Dew PointF,Humidity,Sea Level PressureIn,VisibilityMPH,Wind Direction,Wind SpeedMPH,Gust SpeedMPH,PrecipitationIn,Events,Conditions,WindDirDegrees,DateUTC
12:53 AM,10.9,3.9,73,30.06,10.0,SSE,5.8,-,N/A,,Clear,150,2014-02-08 07:53:00
1:53 AM,8.1,1.9,76,30.05,10.0,ESE,3.5,-,N/A,,Clear,120,2014-02-08 08:53:00
2:53 AM,6.1,1.9,83,30.05,10.0,Calm,Calm,-,N/A,,Clear,0,2014-02-08 09:53:00
3:53 AM,1.9,-2.0,83,30.06,10.0,Calm,Calm,-,N/A,,Clear,0,2014-02-08 10:53:00
4:53 AM,1.0,-2.9,83,30.08,10.0,Calm,Calm,-,N/A,,Partly Cloudy,0,2014-02-08 11:53:00
5:53 AM,1.0,-4.0,79,30.08,10.0,NNE,3.5,-,N/A,,Mostly Cloudy,30,2014-02-08 12:53:00
6:53 AM,3.9,1.0,88,30.06,10.0,Calm,Calm,-,N/A,,Overcast,0,2014-02-08 13:53:00
7:53 AM,8.1,3.9,83,30.09,10.0,Calm,Calm,-,N/A,,Overcast,0,2014-02-08 14:53:00
8:53 AM,12.0,6.1,77,30.09,10.0,Calm,Calm,-,N/A,,Overcast,0,2014-02-08 15:53:00
9:53 AM,15.1,9.0,77,30.09,8.0,Calm,Calm,-,N/A,,Overcast,0,2014-02-08 16:53:00
10:21 AM,17.6,10.4,73,29.90,2.0,NNE,3.5,-,0.00,Snow,Light Snow,30,2014-02-08 17:21:00
10:40 AM,17.6,12.2,79,29.91,1.5,NNE,4.6,-,0.00,Snow,Light Snow,30,2014-02-08 17:40:00
10:50 AM,19.4,12.2,74,29.91,2.0,NNE,6.9,-,0.00,Snow,Light Snow,30,2014-02-08 17:50:00
10:53 AM,19.0,12.9,77,30.07,1.8,NNE,5.8,-,0.00,Snow,Light Snow,20,2014-02-08 17:53:00
11:08 AM,19.4,12.2,74,29.91,0.8,NNE,6.9,-,0.00,Snow,Light Snow,30,2014-02-08 18:08:00
11:53 AM,19.9,15.1,81,30.08,1.0,NNE,6.9,-,0.00,Snow,Light Snow,30,2014-02-08 18:53:00
11:58 AM,19.4,15.8,86,29.91,2.0,NE,8.1,-,0.00,Snow,Light Snow,40,2014-02-08 18:58:00
12:07 PM,19.4,15.8,86,29.91,4.0,NE,6.9,-,0.00,,Haze,40,2014-02-08 19:07:00
12:14 PM,21.2,15.8,80,29.90,1.8,NE,8.1,-,0.00,Snow,Light Snow,40,2014-02-08 19:14:00
12:27 PM,21.2,15.8,80,29.90,0.8,NE,9.2,-,0.00,Snow,Light Snow,40,2014-02-08 19:27:00
12:53 PM,19.9,16.0,85,30.09,0.5,NNE,11.5,-,0.00,Fog-Snow,Snow,20,2014-02-08 19:53:00
1:14 PM,19.4,15.8,86,29.92,1.0,NNE,10.4,-,0.00,Snow,Light Snow,30,2014-02-08 20:14:00
1:53 PM,19.9,15.1,81,30.10,1.8,NE,12.7,-,0.00,Snow,Light Snow,40,2014-02-08 20:53:00
2:06 PM,19.4,15.8,86,29.92,2.5,NE,16.1,-,0.00,Snow,Light Snow,40,2014-02-08 21:06:00
2:38 PM,19.4,14.0,80,29.94,1.5,NNE,15.0,-,0.00,Snow,Light Snow,30,2014-02-08 21:38:00
2:53 PM,19.0,14.0,81,30.14,1.8,NNE,13.8,-,0.00,Snow,Light Snow,30,2014-02-08 21:53:00
3:53 PM,18.0,14.0,84,30.20,1.0,NE,13.8,-,0.00,Snow,Light Snow,40,2014-02-08 22:53:00
4:12 PM,17.6,12.2,79,29.98,2.5,NE,13.8,-,0.00,Snow,Light Snow,50,2014-02-08 23:12:00
4:20 PM,17.6,12.2,79,29.98,3.0,NE,11.5,-,0.00,Snow,Light Snow,50,2014-02-08 23:20:00
4:32 PM,17.6,12.2,79,29.99,2.5,NE,16.1,-,0.00,Snow,Light Snow,50,2014-02-08 23:32:00
4:53 PM,17.1,12.9,84,30.23,1.8,NE,16.1,-,0.00,Snow,Light Snow,40,2014-02-08 23:53:00
5:07 PM,17.6,12.2,79,30.02,1.8,NE,19.6,24.2,0.00,Snow,Light Snow,50,2014-02-09 00:07:00
5:14 PM,15.8,12.2,86,30.02,2.0,NE,18.4,-,0.00,Snow,Light Snow,50,2014-02-09 00:14:00
5:22 PM,15.8,10.4,79,30.04,1.8,NNE,15.0,-,0.00,Snow,Light Snow,30,2014-02-09 00:22:00
5:30 PM,15.8,10.4,79,30.05,2.5,NE,15.0,-,0.00,Snow,Light Snow,40,2014-02-09 00:30:00
5:53 PM,15.1,10.0,80,30.31,2.0,NE,9.2,-,0.00,Snow,Light Snow,40,2014-02-09 00:53:00
6:05 PM,15.8,10.4,79,30.10,1.5,NE,10.4,-,0.00,Snow,Light Snow,40,2014-02-09 01:05:00
6:34 PM,14.0,10.4,86,30.12,0.8,NE,9.2,-,0.00,Snow,Light Snow,40,2014-02-09 01:34:00
6:53 PM,12.9,9.0,84,30.36,1.0,NE,12.7,-,0.00,Snow,Light Snow,40,2014-02-09 01:53:00
7:07 PM,12.2,8.6,85,30.14,1.2,NE,9.2,-,0.00,Snow,Light Snow,40,2014-02-09 02:07:00
7:53 PM,12.0,9.0,88,30.39,1.5,ENE,4.6,-,0.00,Snow,Light Snow,70,2014-02-09 02:53:00
8:34 PM,12.2,8.6,85,30.17,2.0,East,3.5,-,0.00,Snow,Light Snow,90,2014-02-09 03:34:00
8:45 PM,10.4,8.6,92,30.17,2.5,Calm,Calm,-,0.00,Snow,Light Snow,0,2014-02-09 03:45:00
8:53 PM,10.9,8.1,88,30.38,2.5,Calm,Calm,-,0.00,Snow,Light Snow,0,2014-02-09 03:53:00
9:08 PM,10.4,6.8,85,30.18,1.5,North,4.6,-,0.00,Snow,Light Snow,360,2014-02-09 04:08:00
9:28 PM,10.4,6.8,85,30.19,3.0,NNE,9.2,-,0.00,Snow,Light Snow,30,2014-02-09 04:28:00
9:40 PM,10.4,5.0,79,30.20,6.0,NNE,10.4,-,0.00,,Haze,30,2014-02-09 04:40:00
9:53 PM,10.0,5.0,80,30.41,7.0,NNE,9.2,-,0.00,,Overcast,30,2014-02-09 04:53:00
10:53 PM,9.0,5.0,84,30.39,4.0,NE,10.4,-,0.00,Snow,Light Snow,40,2014-02-09 05:53:00
11:53 PM,8.1,3.0,80,30.40,10.0,NNE,9.2,-,0.00,,Overcast,20,2014-02-09 06:53:00